CGYQB CYOO-CYOO

Flight info

Callsign CGYQB
Flight time N/A
Altitude 1800
Route CIRCUITS
Aircraft

Departure

Time 2026-04-22 00:00
Airport Oshawa Executive Airport (CYOO)

Arrival

Time N/A
Airport Oshawa Executive Airport (CYOO)
Time Latitude Longitude Altitude Speed Heading
2026-04-21 23:53 43.92483 -78.89741 455 ft 0 kts 240°
2026-04-21 23:57 43.92467 -78.89753 455 ft 10 kts 195°
2026-04-21 23:57 43.92420 -78.89849 455 ft 11 kts 251°
2026-04-21 23:57 43.92420 -78.89974 456 ft 16 kts 287°
2026-04-21 23:57 43.92466 -78.90143 458 ft 21 kts 296°
2026-04-21 23:58 43.92502 -78.90270 459 ft 10 kts 294°
2026-04-21 23:58 43.92498 -78.90343 459 ft 0 kts 233°
2026-04-21 23:59 43.92492 -78.90353 459 ft 8 kts 219°
2026-04-21 23:59 43.92423 -78.90285 457 ft 34 kts 107°
2026-04-21 23:59 43.92260 -78.89856 586 ft 59 kts 118°
2026-04-22 00:00 43.92059 -78.89340 813 ft 63 kts 124°
2026-04-22 00:00 43.91571 -78.89186 981 ft 82 kts 178°
2026-04-22 00:00 43.91028 -78.89298 1222 ft 79 kts 166°
2026-04-22 00:00 43.90445 -78.89207 1320 ft 95 kts 167°
2026-04-22 00:01 43.89792 -78.89193 1579 ft 94 kts 186°
2026-04-22 00:01 43.89229 -78.89687 1805 ft 97 kts 213°
2026-04-22 00:01 43.88713 -78.90024 1389 ft 102 kts 157°
2026-04-22 00:01 43.88094 -78.89807 1808 ft 83 kts 163°
2026-04-22 00:02 43.87522 -78.89722 2003 ft 84 kts 182°
2026-04-22 00:02 43.86991 -78.89988 2200 ft 85 kts 209°
2026-04-22 00:02 43.86681 -78.90328 2359 ft 85 kts 215°
2026-04-22 00:02 43.86097 -78.91096 2289 ft 90 kts 220°
2026-04-22 00:03 43.85699 -78.91782 2148 ft 97 kts 235°
2026-04-22 00:03 43.85285 -78.92494 1952 ft 95 kts 208°
2026-04-22 00:03 43.84929 -78.92870 1820 ft 100 kts 217°
2026-04-22 00:03 43.84436 -78.93583 1617 ft 108 kts 235°
2026-04-22 00:04 43.83992 -78.94356 1404 ft 100 kts 206°
2026-04-22 00:04 43.83458 -78.94825 1341 ft 79 kts 206°
2026-04-22 00:04 43.82961 -78.95271 1397 ft 94 kts 205°
2026-04-22 00:04 43.82517 -78.96031 1467 ft 111 kts 237°
2026-04-22 00:05 43.82237 -78.97046 1534 ft 114 kts 246°
2026-04-22 00:05 43.82008 -78.98105 1601 ft 115 kts 246°
2026-04-22 00:05 43.81762 -78.99163 1655 ft 117 kts 245°
2026-04-22 00:05 43.81506 -79.00257 1595 ft 121 kts 245°
2026-04-22 00:06 43.81261 -79.01343 1664 ft 116 kts 245°
2026-04-22 00:06 43.81015 -79.02412 1697 ft 117 kts 243°
2026-04-22 00:06 43.80713 -79.03456 1699 ft 117 kts 240°
2026-04-22 00:06 43.80405 -79.04504 1702 ft 118 kts 240°
2026-04-22 00:07 43.80092 -79.05561 1704 ft 119 kts 240°
2026-04-22 00:07 43.79775 -79.06629 1710 ft 121 kts 240°
2026-04-22 00:07 43.79457 -79.07706 1710 ft 121 kts 240°
2026-04-22 00:07 43.79140 -79.08793 1710 ft 121 kts 240°
2026-04-22 00:08 43.78723 -79.09784 1709 ft 118 kts 228°
2026-04-22 00:08 43.78256 -79.10720 1708 ft 118 kts 228°
2026-04-22 00:08 43.77790 -79.11658 1714 ft 119 kts 228°
2026-04-22 00:08 43.77318 -79.12598 1712 ft 119 kts 228°
2026-04-22 00:09 43.76857 -79.13524 1714 ft 117 kts 228°
2026-04-22 00:09 43.76395 -79.14450 1710 ft 116 kts 229°
2026-04-22 00:09 43.75930 -79.15245 1691 ft 100 kts 216°
2026-04-22 00:09 43.75433 -79.15918 1692 ft 105 kts 217°
2026-04-22 00:10 43.74893 -79.16645 1701 ft 111 kts 217°
2026-04-22 00:10 43.74331 -79.17381 1708 ft 112 kts 217°
2026-04-22 00:10 43.73759 -79.18128 1709 ft 114 kts 217°
2026-04-22 00:10 43.73181 -79.18885 1708 ft 114 kts 217°
2026-04-22 00:11 43.72605 -79.19637 1702 ft 113 kts 216°
2026-04-22 00:11 43.72032 -79.20389 1697 ft 115 kts 217°
2026-04-22 00:11 43.71446 -79.21144 1697 ft 114 kts 218°
2026-04-22 00:11 43.70864 -79.21841 1696 ft 109 kts 217°
2026-04-22 00:12 43.70239 -79.22395 1693 ft 106 kts 197°
2026-04-22 00:12 43.69551 -79.22750 1687 ft 106 kts 207°
2026-04-22 00:12 43.69118 -79.23543 1676 ft 116 kts 259°
2026-04-22 00:12 43.69436 -79.24597 1675 ft 131 kts 314°
2026-04-22 00:13 43.70330 -79.24794 1674 ft 139 kts 21°
2026-04-22 00:13 43.70915 -79.23858 1674 ft 128 kts 87°
2026-04-22 00:13 43.70626 -79.22846 1678 ft 111 kts 151°
2026-04-22 00:13 43.69933 -79.22917 1678 ft 109 kts 218°
2026-04-22 00:14 43.69344 -79.23488 1676 ft 106 kts 182°
2026-04-22 00:14 43.68808 -79.22826 1678 ft 121 kts 108°
2026-04-22 00:14 43.69132 -79.21737 1677 ft 136 kts 39°
2026-04-22 00:14 43.70036 -79.21552 1681 ft 135 kts 335°
2026-04-22 00:15 43.70535 -79.22485 1680 ft 118 kts 263°
2026-04-22 00:15 43.70162 -79.23374 1683 ft 107 kts 217°